SCP
0 0 0 0 0 0 0 0 0 0 0 0 0 0 0 0 0 0 0 0 0 0 0 0 0 0 0 0 0 0 0 0 0 0 0 0 0 0 0 0 0 0 0 0
0 0 0 0 0 0 0 0 0 0 0 0 0 0 0 0 0 0 0 0 0 0 0 0 0 0 0 0 0 0 0 0 0 0 0 0 0 0 0 0 0 0 0 0
0 0 0 0 0 0 0 0 0 0 0 0 0 0 -0 0 0 0 0 0 0 0 0 0 0 0 0 0 0 0 0 0 0 0 0 0 0 0 0 0 0 0 0 0
0 0 0 0 0 0 0 0 -0 0 0 0 0 0 -0 0 0 -0 -0 -0 0 0 0 0 0 0 0 0 0 0 0 0 0 0 0 0 0 0 0 0 0 0 0 0
0 0 0 0 0 0 0 0 0 0 0 0 0 0 0 -0 -0 -0 -0 -0 -0 0 0 0 0 0 0 0 0 0 0 0 0 0 0 0 0 0 -0 0 0 0 0 0
0 0 0 0 0 0 0 0 0 0 0 0 0 0 -0 0 -0 -0 -0 -0 -0 -0 0 0 0 0 0 0 0 0 0 0 0 0 0 0 0 0 0 0 0 0 0 0
0 0 0 0 0 0 0 0 0 0 0 0 0 0 0 0 0 -0 -0 -0 -0 -0 0 0 0 0 0 0 0 0 0 0 0 0 0 0 0 0 0 0 0 0 0 0
0 0 0 0 0 0 0 0 0 0 0 0 0 0 0 -0 -0 0 -0 -0 -0 -0 0 0 0 0 0 0 0 0 0 0 0 0 0 0 0 0 0 0 0 0 0 0
0 0 0 0 0 0 0 0 0 0 0 0 0 0 0 0 -0 -0 -0 -0 -0 -0 -0 0 0 0 0 0 0 0 0 0 0 0 0 0 0 0 0 0 0 0 0 0
0 0 0 0 0 0 0 0 0 0 0 0 0 0 0 0 -0 -0 -0 -0 -0 -0 0 0 0 0 0 0 0 0 0 0 0 0 0 0 0 0 0 0 0 0 0 0
0 0 0 0 0 0 0 0 0 0 0 0 0 0 0 0 0 0 -0 -0 -0 -0 0 0 0 0 0 0 0 0 0 0 0 0 0 0 0 -0 0 0 0 0 0 0
0 0 0 0 0 0 0 0 0 0 0 0 0 0 0 -0 -0 0 0 -0 -0 -0 0 0 0 0 0 0 0 0 0 0 0 0 0 0 0 -0 0 -0 0 0 0 0
0 0 0 0 0 0 0 0 0 0 0 0 0 0 0 -0 -0 -0 0 0 -0 -0 -0 -0 0 0 0 0 0 0 0 0 0 0 0 0 0 0 -0 -0 -0 0 0 0
0 0 0 0 0 0 0 0 0 0 0 0 0 0 0 -0 -0 -0 0 0 0 0 0 0 0 0 0 0 0 0 0 0 0 0 0 0 -0 -0 -0 -0 -0 -0 -0 -0
0 0 0 0 0 0 0 0 0 0 0 0 0 0 0 0 0 0 -0 -0 -0 0 -0 -0 0 -0 0 0 0 0 0 0 0 0 0 0 0 0 0 0 -0 0 0 0
0 0 0 0 0 0 0 0 0 0 0 0 0 0 0 0 0 0 0 0 0 0 0 0 0 0 0 0 0 0 0 0 0 0 0 0 0 0 0 0 0 0 0 0
0 0 0 0 0 0 -0 0 0 0 0 0 0 0 0 0 0 0 0 0 0 0 0 0 0 0 0 0 0 0 0 -0 0 0 0 0 0 0 0 0 0 0 0 -0
0 0 0 0 0 0 0 0 0 0 0 0 0 0 0 0 0 0 0 0 0 0 0 0 0 0 0 0 0 0 0 0 0 0 0 0 0 0 0 0 0 0 0 -0
0 0 0 0 0 0 0 0 0 0 0 0 0 -0 -0 -0 0 0 0 0 0 0 0 0 0 0 0 0 0 0 0 0 0 0 0 0 0 0 0 0 0 0 -0 -0
0 0 0 0 0 0 0 0 0 0 -0 0 -0 -0 -0 -0 -0 0 0 0 0 0 0 0 0 0 0 0 0 0 0 0 0 0 0 0 0 0 -0 -0 -0 -0 -0 -0
0 0 0 0 0 0 0 0 -0 0 -0 -0 0 -0 0 -0 0 -0 -0 0 0 0 0 0 0 0 0 0 0 0 0 0 0 0 0 0 -0 -0 -0 -0 -0 -0 0 0
0 0 0 0 0 0 0 0 -0 -0 -0 0 -0 -0 -0 -0 0 0 0 0 0 0 0 0 0 0 0 0 0 0 0 0 0 0 0 -0 -0 -0 -0 0 0 0 0 0
0 0 0 -0 0 0 0 0 0 0 -0 0 -0 0 -0 0 0 0 0 0 0 0 0 0 0 0 0 0 0 0 0 0 0 0 0 0 0 0 0 0 0 0 0 0
0 0 0 0 0 0 0 0 0 0 0 -0 -0 -0 0 0 0 0 0 0 0 0 0 0 0 0 0 0 -0 -0 -0 -0 0 0 0 0 0 0 0 0 0 0 0 0
0 0 0 -0 -0 0 -0 -0 0 0 0 0 0 0 0 0 0 0 0 0 0 0 -0 -0 0 0 -0 -0 -0 0 0 0 0 0 0 0 0 0 0 0 0 0 0 0
0 -0 -0 -0 -0 0 0 -0 -0 -0 -0 -0 -0 0 0 0 0 0 0 0 0 0 0 -0 0 -0 -0 0 0 0 0 0 0 0 0 0 0 0 0 0 0 0 0 0
Wind_Speed_500mb
4 9 4 9 5 12 20 26 29 28 14 30 8 11 19 24 40 43 48 53 59 63 56 46 39 33 23 12 17 17 19 21 34 40 35 37 37 38 36 31 31 37 50 49
10 1 4 8 11 18 25 27 14 19 25 14 16 20 18 19 31 36 42 48 51 62 59 59 58 37 19 19 13 14 17 27 27 32 32 37 36 33 31 26 35 48 45 62
6 5 11 13 21 33 27 8 19 21 15 6 16 5 11 19 22 42 42 43 50 55 63 67 62 52 35 19 17 16 20 29 27 29 33 38 38 29 29 28 33 33 59 65
6 8 10 16 14 18 9 7 33 31 3 7 5 6 9 25 17 33 50 57 59 68 68 67 56 50 49 18 15 21 20 23 26 30 37 45 42 32 30 37 46 42 33 36
4 10 12 6 22 11 16 38 24 10 6 5 9 5 3 18 24 40 45 60 64 65 60 61 56 47 41 28 15 15 17 24 27 33 39 39 37 31 34 27 54 52 47 56
7 15 3 5 26 1 25 10 4 4 5 7 14 5 5 11 18 31 44 58 64 70 71 59 49 44 42 32 27 21 18 19 24 23 28 32 33 35 35 46 49 50 53 53
14 5 4 7 11 2 18 12 7 9 9 7 7 7 7 9 13 17 35 55 61 65 64 61 57 52 48 41 32 21 18 13 11 11 17 27 30 38 44 52 54 61 60 61
7 14 7 10 8 7 9 5 6 6 6 9 11 8 9 8 18 34 41 44 53 60 58 55 49 45 42 36 28 21 15 9 6 7 16 24 35 41 51 58 52 51 51 55
7 12 3 7 2 5 11 5 3 4 6 5 5 1 7 23 37 42 46 50 54 59 61 56 45 41 37 32 27 19 13 8 0 10 23 34 39 46 48 55 56 53 54 52
5 13 6 7 2 9 7 7 1 1 8 6 6 8 7 26 37 32 36 48 58 58 52 46 41 37 31 27 22 17 13 6 11 20 30 43 51 54 61 62 60 58 59 59
9 4 6 7 3 9 6 6 5 5 4 3 7 7 7 10 16 23 32 43 49 53 46 39 35 29 26 24 23 23 26 21 21 33 45 53 65 66 75 76 77 76 78 75
7 6 13 9 10 9 7 4 2 2 8 3 3 7 1 5 13 24 34 40 41 39 33 35 30 28 32 33 34 34 37 43 47 53 64 71 85 90 93 94 93 90 89 84
6 1 10 6 6 4 7 2 5 7 2 5 4 7 7 19 23 26 29 38 36 33 33 35 34 37 43 47 50 52 53 60 70 73 72 80 101 108 104 99 93 88 84 80
11 4 11 10 9 6 11 7 7 3 2 5 7 14 12 29 20 31 34 28 27 30 32 34 38 44 48 56 61 67 68 74 74 72 74 77 108 110 106 99 93 87 83 82
6 5 2 15 12 3 5 10 8 8 7 5 11 7 8 13 19 24 24 18 22 28 33 38 43 46 50 59 64 70 77 77 74 81 91 94 105 104 99 95 91 87 83 80
3 4 1 11 14 10 8 13 4 5 7 9 7 12 6 7 10 16 17 18 22 28 32 39 46 53 61 67 73 76 81 83 89 91 89 91 98 93 91 88 85 81 78 74
6 5 5 9 13 13 11 11 5 6 6 10 3 8 2 6 8 10 16 23 32 36 40 43 48 57 62 66 68 72 68 68 77 81 85 84 84 83 82 77 71 70 70 66
6 7 5 7 11 10 12 7 6 10 10 9 5 12 6 3 7 10 13 22 29 35 41 45 48 51 52 53 58 61 66 72 75 76 77 77 77 76 72 68 66 63 59 57
4 6 3 2 1 12 18 9 10 10 10 15 11 4 4 13 4 6 14 19 28 33 35 40 42 45 45 47 53 60 67 70 71 71 69 68 65 65 62 61 57 53 48 48
6 8 6 3 4 6 14 9 16 9 7 28 28 21 20 16 5 7 17 24 28 30 32 35 36 39 43 52 58 61 63 62 63 61 60 57 54 52 50 48 45 42 41 38
4 1 7 6 7 14 10 19 23 10 11 41 55 52 46 13 14 32 32 34 33 31 31 32 34 39 44 44 47 51 52 54 54 50 49 47 44 42 40 37 35 32 28 25
12 12 8 4 2 11 25 18 15 8 17 59 55 51 48 22 39 42 39 37 36 33 32 32 35 39 39 35 34 41 42 45 41 38 36 35 32 32 30 25 25 23 20 15
5 11 8 16 10 5 58 9 25 23 53 64 60 54 43 41 48 47 45 41 36 31 32 31 28 33 34 30 25 28 37 34 30 27 26 26 26 25 23 18 17 15 14 14
9 11 6 6 5 16 47 46 20 25 53 56 52 54 52 54 51 48 45 44 40 37 33 31 30 30 31 31 27 23 29 26 22 18 19 21 18 17 16 15 15 12 11 13
7 15 8 13 12 6 36 68 44 32 43 56 52 51 50 54 54 51 50 45 40 35 31 29 27 28 28 28 26 22 22 21 18 14 13 11 9 8 6 5 5 8 14 19
22 15 11 13 14 6 5 54 67 50 55 57 59 58 55 55 56 54 50 46 43 39 36 34 32 30 28 27 25 22 20 20 16 11 9 8 7 5 3 7 14 18 21 25
Wind_Direction_500mb
324 57 327 311 299 285 297 301 301 301 345 329 284 56 49 25 20 13 4 357 353 351 352 348 349 332 280 245 215 234 274 270 278 275 261 275 278 251 239 216 220 219 225 220
9 245 273 293 315 325 319 305 293 294 320 317 83 48 19 23 22 12 2 355 349 349 2 1 359 355 312 245 216 227 254 260 259 248 252 279 279 253 247 226 208 212 217 221
174 254 350 334 331 340 330 265 312 302 317 46 131 133 49 2 3 4 2 354 358 356 350 1 3 13 355 245 254 276 264 263 257 254 254 269 266 234 227 220 212 212 214 221
248 325 354 328 316 356 311 297 311 302 315 157 155 267 7 349 351 359 355 357 353 351 358 2 6 19 27 357 286 305 284 276 266 269 270 267 257 230 228 205 195 183 195 208
287 334 324 339 321 347 252 316 294 282 272 9 146 109 343 357 345 348 350 348 347 348 351 355 6 15 21 35 26 315 280 289 293 262 263 262 241 221 241 210 185 185 186 193
257 299 69 290 301 30 326 343 359 274 79 24 299 122 322 2 334 336 339 342 345 348 355 358 9 21 23 21 12 351 311 312 292 284 254 231 216 224 230 203 182 178 178 180
339 275 28 349 329 336 359 23 354 354 6 228 283 2 262 329 344 344 335 336 344 350 356 1 14 18 20 21 14 356 340 339 309 270 239 199 204 218 197 177 172 171 184 182
37 330 38 337 126 236 352 86 135 264 319 288 354 343 275 186 13 358 351 346 348 354 2 4 12 19 22 22 16 358 339 323 276 199 187 202 189 185 177 169 163 163 178 185
16 279 113 61 98 80 332 6 312 220 197 339 252 169 127 333 346 354 352 353 349 351 1 6 14 22 24 23 23 22 10 347 86 171 156 164 171 168 158 148 156 156 150 143
209 289 202 131 78 78 80 328 189 0 334 308 308 303 252 336 336 345 344 346 346 352 8 16 22 27 35 38 35 34 43 65 123 142 140 142 144 151 142 141 145 139 134 132
128 129 286 93 357 214 11 12 355 283 192 308 317 292 204 290 318 331 330 341 344 351 8 18 31 40 52 61 68 79 90 103 120 125 121 128 132 134 128 124 123 123 123 122
143 212 277 197 245 170 123 174 158 349 335 300 242 289 296 247 342 344 337 342 349 355 20 33 48 59 68 79 84 93 102 106 110 118 113 116 122 121 116 114 114 115 113 114
169 189 325 38 348 270 96 88 64 255 282 277 300 292 231 7 352 353 348 345 356 1 29 49 62 69 77 84 88 94 105 108 111 115 104 106 114 114 112 113 113 111 110 109
135 148 175 210 196 238 333 337 8 109 65 289 229 290 312 328 342 342 347 359 12 26 43 63 72 77 84 87 96 100 104 107 110 109 104 104 111 113 113 113 111 110 110 110
99 172 238 273 128 261 245 277 349 112 222 201 290 270 268 302 317 327 335 360 19 37 58 66 75 84 90 94 97 100 102 108 111 110 106 104 108 109 110 111 112 112 111 109
38 285 17 293 105 132 280 284 180 213 181 271 284 286 185 287 341 342 1 35 38 48 70 78 86 90 91 95 99 105 108 111 110 109 113 113 110 110 110 112 112 110 107 107
104 88 37 269 310 131 348 239 200 270 207 163 24 239 207 310 320 358 23 51 61 68 74 81 87 95 99 101 106 111 115 117 115 115 112 109 109 110 109 107 110 109 107 106
128 106 155 271 343 22 236 269 168 168 239 209 279 265 232 230 47 47 63 71 70 70 75 83 92 99 102 108 111 115 116 114 112 110 109 110 107 104 104 105 103 102 101 99
143 119 323 30 248 285 135 245 172 153 277 191 198 229 200 188 82 67 114 94 83 77 80 93 105 113 118 119 119 119 118 116 113 113 110 105 103 103 102 99 97 96 95 91
141 104 118 320 92 187 235 223 194 136 332 181 186 182 178 170 56 247 157 129 112 105 108 114 115 119 124 126 125 123 119 116 109 105 102 101 100 100 98 95 96 93 85 84
194 234 157 221 259 286 228 156 156 81 233 173 188 180 174 185 194 156 153 140 126 124 125 123 121 122 121 124 124 119 114 105 101 99 97 96 94 91 90 90 88 82 82 80
172 151 195 159 275 310 155 128 167 218 154 173 185 192 190 179 163 160 156 149 143 142 135 131 132 127 124 123 123 114 108 102 103 101 99 98 98 94 89 86 86 84 78 71
275 195 181 182 219 248 185 205 163 171 168 178 182 184 187 178 171 167 161 159 155 151 144 139 140 132 128 127 127 121 110 108 109 112 112 107 96 90 91 93 92 85 77 61
236 178 241 48 281 221 207 211 205 187 189 182 185 182 183 180 176 172 171 169 166 161 159 153 151 148 144 143 144 138 122 122 120 117 113 108 104 100 92 74 64 53 49 38
201 140 199 265 260 218 230 218 215 200 183 189 190 193 187 185 182 181 178 177 174 171 168 165 164 162 160 159 157 151 144 139 130 125 112 102 100 95 85 69 45 26 19 17
190 185 177 218 207 197 219 215 197 201 193 188 190 189 192 192 188 185 185 182 181 180 179 178 176 176 178 176 173 175 170 158 147 156 158 160 159 156 89 35 22 17 7 359
Wind_Speed_850mb
4 9 4 9 5 12 20 26 29 28 14 30 8 11 19 24 40 43 48 53 59 63 56 46 39 33 23 12 17 17 19 21 34 40 35 37 37 38 36 31 31 37 50 49
10 1 4 8 11 18 25 27 14 19 25 14 16 20 18 19 31 36 42 48 51 62 59 59 58 37 19 19 13 14 17 27 27 32 32 37 36 33 31 26 35 48 45 62
6 5 11 13 21 33 27 8 19 21 15 6 16 5 11 19 22 42 42 43 50 55 63 67 62 52 35 19 17 16 20 29 27 29 33 38 38 29 29 28 33 33 59 65
6 8 10 16 14 18 9 7 33 31 3 7 5 6 9 25 17 33 50 57 59 68 68 67 56 50 49 18 15 21 20 23 26 30 37 45 42 32 30 37 46 42 33 36
4 10 12 6 22 11 16 38 24 10 6 5 9 5 3 18 24 40 45 60 64 65 60 61 56 47 41 28 15 15 17 24 27 33 39 39 37 31 34 27 54 52 47 56
7 15 3 5 26 1 25 10 4 4 5 7 14 5 5 11 18 31 44 58 64 70 71 59 49 44 42 32 27 21 18 19 24 23 28 32 33 35 35 46 49 50 53 53
14 5 4 7 11 2 18 12 7 9 9 7 7 7 7 9 13 17 35 55 61 65 64 61 57 52 48 41 32 21 18 13 11 11 17 27 30 38 44 52 54 61 60 61
7 14 7 10 8 7 9 5 6 6 6 9 11 8 9 8 18 34 41 44 53 60 58 55 49 45 42 36 28 21 15 9 6 7 16 24 35 41 51 58 52 51 51 55
7 12 3 7 2 5 11 5 3 4 6 5 5 1 7 23 37 42 46 50 54 59 61 56 45 41 37 32 27 19 13 8 0 10 23 34 39 46 48 55 56 53 54 52
5 13 6 7 2 9 7 7 1 1 8 6 6 8 7 26 37 32 36 48 58 58 52 46 41 37 31 27 22 17 13 6 11 20 30 43 51 54 61 62 60 58 59 59
9 4 6 7 3 9 6 6 5 5 4 3 7 7 7 10 16 23 32 43 49 53 46 39 35 29 26 24 23 23 26 21 21 33 45 53 65 66 75 76 77 76 78 75
7 6 13 9 10 9 7 4 2 2 8 3 3 7 1 5 13 24 34 40 41 39 33 35 30 28 32 33 34 34 37 43 47 53 64 71 85 90 93 94 93 90 89 84
6 1 10 6 6 4 7 2 5 7 2 5 4 7 7 19 23 26 29 38 36 33 33 35 34 37 43 47 50 52 53 60 70 73 72 80 101 108 104 99 93 88 84 80
11 4 11 10 9 6 11 7 7 3 2 5 7 14 12 29 20 31 34 28 27 30 32 34 38 44 48 56 61 67 68 74 74 72 74 77 108 110 106 99 93 87 83 82
6 5 2 15 12 3 5 10 8 8 7 5 11 7 8 13 19 24 24 18 22 28 33 38 43 46 50 59 64 70 77 77 74 81 91 94 105 104 99 95 91 87 83 80
3 4 1 11 14 10 8 13 4 5 7 9 7 12 6 7 10 16 17 18 22 28 32 39 46 53 61 67 73 76 81 83 89 91 89 91 98 93 91 88 85 81 78 74
6 5 5 9 13 13 11 11 5 6 6 10 3 8 2 6 8 10 16 23 32 36 40 43 48 57 62 66 68 72 68 68 77 81 85 84 84 83 82 77 71 70 70 66
6 7 5 7 11 10 12 7 6 10 10 9 5 12 6 3 7 10 13 22 29 35 41 45 48 51 52 53 58 61 66 72 75 76 77 77 77 76 72 68 66 63 59 57
4 6 3 2 1 12 18 9 10 10 10 15 11 4 4 13 4 6 14 19 28 33 35 40 42 45 45 47 53 60 67 70 71 71 69 68 65 65 62 61 57 53 48 48
6 8 6 3 4 6 14 9 16 9 7 28 28 21 20 16 5 7 17 24 28 30 32 35 36 39 43 52 58 61 63 62 63 61 60 57 54 52 50 48 45 42 41 38
4 1 7 6 7 14 10 19 23 10 11 41 55 52 46 13 14 32 32 34 33 31 31 32 34 39 44 44 47 51 52 54 54 50 49 47 44 42 40 37 35 32 28 25
12 12 8 4 2 11 25 18 15 8 17 59 55 51 48 22 39 42 39 37 36 33 32 32 35 39 39 35 34 41 42 45 41 38 36 35 32 32 30 25 25 23 20 15
5 11 8 16 10 5 58 9 25 23 53 64 60 54 43 41 48 47 45 41 36 31 32 31 28 33 34 30 25 28 37 34 30 27 26 26 26 25 23 18 17 15 14 14
9 11 6 6 5 16 47 46 20 25 53 56 52 54 52 54 51 48 45 44 40 37 33 31 30 30 31 31 27 23 29 26 22 18 19 21 18 17 16 15 15 12 11 13
7 15 8 13 12 6 36 68 44 32 43 56 52 51 50 54 54 51 50 45 40 35 31 29 27 28 28 28 26 22 22 21 18 14 13 11 9 8 6 5 5 8 14 19
22 15 11 13 14 6 5 54 67 50 55 57 59 58 55 55 56 54 50 46 43 39 36 34 32 30 28 27 25 22 20 20 16 11 9 8 7 5 3 7 14 18 21 25
Wind_Direction_850mb
324 57 327 311 299 285 297 301 301 301 345 329 284 56 49 25 20 13 4 357 353 351 352 348 349 332 280 245 215 234 274 270 278 275 261 275 278 251 239 216 220 219 225 220
9 245 273 293 315 325 319 305 293 294 320 317 83 48 19 23 22 12 2 355 349 349 2 1 359 355 312 245 216 227 254 260 259 248 252 279 279 253 247 226 208 212 217 221
174 254 350 334 331 340 330 265 312 302 317 46 131 133 49 2 3 4 2 354 358 356 350 1 3 13 355 245 254 276 264 263 257 254 254 269 266 234 227 220 212 212 214 221
248 325 354 328 316 356 311 297 311 302 315 157 155 267 7 349 351 359 355 357 353 351 358 2 6 19 27 357 286 305 284 276 266 269 270 267 257 230 228 205 195 183 195 208
287 334 324 339 321 347 252 316 294 282 272 9 146 109 343 357 345 348 350 348 347 348 351 355 6 15 21 35 26 315 280 289 293 262 263 262 241 221 241 210 185 185 186 193
257 299 69 290 301 30 326 343 359 274 79 24 299 122 322 2 334 336 339 342 345 348 355 358 9 21 23 21 12 351 311 312 292 284 254 231 216 224 230 203 182 178 178 180
339 275 28 349 329 336 359 23 354 354 6 228 283 2 262 329 344 344 335 336 344 350 356 1 14 18 20 21 14 356 340 339 309 270 239 199 204 218 197 177 172 171 184 182
37 330 38 337 126 236 352 86 135 264 319 288 354 343 275 186 13 358 351 346 348 354 2 4 12 19 22 22 16 358 339 323 276 199 187 202 189 185 177 169 163 163 178 185
16 279 113 61 98 80 332 6 312 220 197 339 252 169 127 333 346 354 352 353 349 351 1 6 14 22 24 23 23 22 10 347 86 171 156 164 171 168 158 148 156 156 150 143
209 289 202 131 78 78 80 328 189 0 334 308 308 303 252 336 336 345 344 346 346 352 8 16 22 27 35 38 35 34 43 65 123 142 140 142 144 151 142 141 145 139 134 132
128 129 286 93 357 214 11 12 355 283 192 308 317 292 204 290 318 331 330 341 344 351 8 18 31 40 52 61 68 79 90 103 120 125 121 128 132 134 128 124 123 123 123 122
143 212 277 197 245 170 123 174 158 349 335 300 242 289 296 247 342 344 337 342 349 355 20 33 48 59 68 79 84 93 102 106 110 118 113 116 122 121 116 114 114 115 113 114
169 189 325 38 348 270 96 88 64 255 282 277 300 292 231 7 352 353 348 345 356 1 29 49 62 69 77 84 88 94 105 108 111 115 104 106 114 114 112 113 113 111 110 109
135 148 175 210 196 238 333 337 8 109 65 289 229 290 312 328 342 342 347 359 12 26 43 63 72 77 84 87 96 100 104 107 110 109 104 104 111 113 113 113 111 110 110 110
99 172 238 273 128 261 245 277 349 112 222 201 290 270 268 302 317 327 335 360 19 37 58 66 75 84 90 94 97 100 102 108 111 110 106 104 108 109 110 111 112 112 111 109
38 285 17 293 105 132 280 284 180 213 181 271 284 286 185 287 341 342 1 35 38 48 70 78 86 90 91 95 99 105 108 111 110 109 113 113 110 110 110 112 112 110 107 107
104 88 37 269 310 131 348 239 200 270 207 163 24 239 207 310 320 358 23 51 61 68 74 81 87 95 99 101 106 111 115 117 115 115 112 109 109 110 109 107 110 109 107 106
128 106 155 271 343 22 236 269 168 168 239 209 279 265 232 230 47 47 63 71 70 70 75 83 92 99 102 108 111 115 116 114 112 110 109 110 107 104 104 105 103 102 101 99
143 119 323 30 248 285 135 245 172 153 277 191 198 229 200 188 82 67 114 94 83 77 80 93 105 113 118 119 119 119 118 116 113 113 110 105 103 103 102 99 97 96 95 91
141 104 118 320 92 187 235 223 194 136 332 181 186 182 178 170 56 247 157 129 112 105 108 114 115 119 124 126 125 123 119 116 109 105 102 101 100 100 98 95 96 93 85 84
194 234 157 221 259 286 228 156 156 81 233 173 188 180 174 185 194 156 153 140 126 124 125 123 121 122 121 124 124 119 114 105 101 99 97 96 94 91 90 90 88 82 82 80
172 151 195 159 275 310 155 128 167 218 154 173 185 192 190 179 163 160 156 149 143 142 135 131 132 127 124 123 123 114 108 102 103 101 99 98 98 94 89 86 86 84 78 71
275 195 181 182 219 248 185 205 163 171 168 178 182 184 187 178 171 167 161 159 155 151 144 139 140 132 128 127 127 121 110 108 109 112 112 107 96 90 91 93 92 85 77 61
236 178 241 48 281 221 207 211 205 187 189 182 185 182 183 180 176 172 171 169 166 161 159 153 151 148 144 143 144 138 122 122 120 117 113 108 104 100 92 74 64 53 49 38
201 140 199 265 260 218 230 218 215 200 183 189 190 193 187 185 182 181 178 177 174 171 168 165 164 162 160 159 157 151 144 139 130 125 112 102 100 95 85 69 45 26 19 17
190 185 177 218 207 197 219 215 197 201 193 188 190 189 192 192 188 185 185 182 181 180 179 178 176 176 178 176 173 175 170 158 147 156 158 160 159 156 89 35 22 17 7 359